contact:dominique.lefevre@mio.osupytheas.fr, maurice.libes@osupytheas.fr, didier.mallarino@osupytheas.fr
Project:EMSO http://www.emso-fr.org/EMSO-France
Depth: 2436.0 m
Title:EMSO Ligure Ouest : Data MII capteur MICROCAT
DateTime_Computer,Latitude,Longitude,Temperature,Conductivity,Pressure,DateTime_Instrument
DateTime_Computer,Latitude,Longitude,degC,S m-1,dbar,DateTime_Instrument
2023-08-13T00:02:55Z,42.805,6.029,13.3043,4.60150,2470.707,2023-8-13T02:05:14Z
2023-08-13T00:05:58Z,42.805,6.029,13.3042,4.60126,2470.684,2023-8-13T02:08:17Z
2023-08-13T00:09:01Z,42.805,6.029,13.3036,4.60144,2470.693,2023-8-13T02:11:20Z
2023-08-13T00:12:04Z,42.805,6.029,13.3047,4.60127,2470.684,2023-8-13T02:14:23Z
2023-08-13T00:15:07Z,42.805,6.029,13.3057,4.60148,2470.693,2023-8-13T02:17:26Z
2023-08-13T00:18:10Z,42.805,6.029,13.3036,4.60128,2470.693,2023-8-13T02:20:29Z
2023-08-13T00:21:13Z,42.805,6.029,13.3033,4.60121,2470.646,2023-8-13T02:23:33Z
2023-08-13T00:24:17Z,42.805,6.029,13.3037,4.60117,2470.717,2023-8-13T02:26:36Z
2023-08-13T00:27:20Z,42.805,6.029,13.3036,4.60119,2470.693,2023-8-13T02:29:39Z
2023-08-13T00:30:23Z,42.805,6.029,13.3047,4.60116,2470.693,2023-8-13T02:32:42Z
2023-08-13T00:33:26Z,42.805,6.029,13.3041,4.60116,2470.693,2023-8-13T02:35:45Z
2023-08-13T00:36:29Z,42.805,6.029,13.3037,4.60125,2470.707,2023-8-13T02:38:48Z
2023-08-13T00:39:32Z,42.805,6.029,13.3040,4.60134,2470.67,2023-8-13T02:41:51Z
2023-08-13T00:42:35Z,42.805,6.029,13.3033,4.60122,2470.67,2023-8-13T02:44:54Z
2023-08-13T00:45:38Z,42.805,6.029,13.3033,4.60104,2470.67,2023-8-13T02:47:57Z
2023-08-13T00:48:41Z,42.805,6.029,13.3046,4.60124,2470.67,2023-8-13T02:51:00Z
2023-08-13T00:51:44Z,42.805,6.029,13.3039,4.60125,2470.684,2023-8-13T02:54:03Z
2023-08-13T00:54:47Z,42.805,6.029,13.3041,4.60133,2470.693,2023-8-13T02:57:07Z
2023-08-13T00:57:50Z,42.805,6.029,13.3035,4.60114,2470.717,2023-8-13T03:00:10Z
2023-08-13T01:00:54Z,42.805,6.029,13.3032,4.60132,2470.67,2023-8-13T03:03:13Z
2023-08-13T01:03:57Z,42.805,6.029,13.3030,4.60180,2470.73,2023-8-13T03:06:16Z
2023-08-13T01:07:00Z,42.805,6.029,13.3048,4.60149,2470.646,2023-8-13T03:09:19Z
2023-08-13T01:10:03Z,42.805,6.029,13.3040,4.60119,2470.684,2023-8-13T03:12:22Z
2023-08-13T01:13:06Z,42.805,6.029,13.3041,4.60127,2470.717,2023-8-13T03:15:25Z
2023-08-13T01:16:09Z,42.805,6.029,13.3036,4.60119,2470.67,2023-8-13T03:18:28Z
2023-08-13T01:19:12Z,42.805,6.029,13.3048,4.60141,2470.67,2023-8-13T03:21:31Z
2023-08-13T01:22:15Z,42.805,6.029,13.3036,4.60131,2470.67,2023-8-13T03:24:34Z
2023-08-13T01:25:18Z,42.805,6.029,13.3051,4.60148,2470.693,2023-8-13T03:27:37Z
2023-08-13T01:28:21Z,42.805,6.029,13.3070,4.60142,2470.717,2023-8-13T03:30:40Z
2023-08-13T01:31:24Z,42.805,6.029,13.3055,4.60156,2470.707,2023-8-13T03:33:43Z
2023-08-13T01:34:27Z,42.805,6.029,13.3061,4.60122,2470.646,2023-8-13T03:36:47Z
2023-08-13T01:37:31Z,42.805,6.029,13.3042,4.60169,2470.684,2023-8-13T03:39:50Z
2023-08-13T01:40:34Z,42.805,6.029,13.3065,4.60135,2470.707,2023-8-13T03:42:53Z
2023-08-13T01:43:37Z,42.805,6.029,13.3070,4.60173,2470.67,2023-8-13T03:45:56Z
2023-08-13T01:46:40Z,42.805,6.029,13.3052,4.60185,2470.693,2023-8-13T03:48:59Z
2023-08-13T01:49:43Z,42.805,6.029,13.3081,4.60190,2470.74,2023-8-13T03:52:02Z
2023-08-13T01:52:46Z,42.805,6.029,13.3070,4.60173,2470.67,2023-8-13T03:55:05Z
2023-08-13T01:55:49Z,42.805,6.029,13.3068,4.60188,2470.717,2023-8-13T03:58:08Z
2023-08-13T01:58:52Z,42.805,6.029,13.3072,4.60198,2470.693,2023-8-13T04:01:11Z
2023-08-13T02:01:55Z,42.805,6.029,13.3064,4.60152,2470.717,2023-8-13T04:04:14Z
2023-08-13T02:04:58Z,42.805,6.029,13.3063,4.60160,2470.693,2023-8-13T04:07:17Z
2023-08-13T02:08:01Z,42.805,6.029,13.3099,4.60191,2470.684,2023-8-13T04:10:21Z
2023-08-13T02:11:04Z,42.805,6.029,13.3078,4.60230,2470.707,2023-8-13T04:13:24Z
2023-08-13T02:14:08Z,42.805,6.029,13.3067,4.60180,2470.684,2023-8-13T04:16:27Z
2023-08-13T02:17:11Z,42.805,6.029,13.3085,4.60173,2470.707,2023-8-13T04:19:30Z
2023-08-13T02:20:14Z,42.805,6.029,13.3084,4.60207,2470.693,2023-8-13T04:22:33Z
2023-08-13T02:23:17Z,42.805,6.029,13.3086,4.60190,2470.684,2023-8-13T04:25:36Z
2023-08-13T02:26:20Z,42.805,6.029,13.3099,4.60150,2470.73,2023-8-13T04:28:39Z
2023-08-13T02:29:23Z,42.805,6.029,13.3034,4.60137,2470.717,2023-8-13T04:31:42Z
2023-08-13T02:32:26Z,42.805,6.029,13.3064,4.60103,2470.693,2023-8-13T04:34:45Z
2023-08-13T02:35:29Z,42.805,6.029,13.3067,4.60154,2470.707,2023-8-13T04:37:48Z
2023-08-13T02:38:32Z,42.805,6.029,13.3067,4.60147,2470.693,2023-8-13T04:40:51Z
2023-08-13T02:41:35Z,42.805,6.029,13.3088,4.60127,2470.684,2023-8-13T04:43:54Z
2023-08-13T02:44:38Z,42.805,6.029,13.3088,4.60158,2470.684,2023-8-13T04:46:58Z
2023-08-13T02:47:41Z,42.805,6.029,13.3065,4.60142,2470.73,2023-8-13T04:50:01Z
2023-08-13T02:50:45Z,42.805,6.029,13.3082,4.60104,2470.707,2023-8-13T04:53:04Z
2023-08-13T02:53:48Z,42.805,6.029,13.3076,4.60120,2470.717,2023-8-13T04:56:07Z
2023-08-13T02:56:51Z,42.805,6.029,13.3095,4.60119,2470.717,2023-8-13T04:59:10Z
2023-08-13T02:59:54Z,42.805,6.029,13.3063,4.60107,2470.717,2023-8-13T05:02:13Z
2023-08-13T03:02:57Z,42.805,6.029,13.3046,4.60137,2470.693,2023-8-13T05:05:16Z
2023-08-13T03:06:00Z,42.805,6.029,13.3041,4.60184,2470.74,2023-8-13T05:08:19Z
2023-08-13T03:09:03Z,42.805,6.029,13.3057,4.60122,2470.717,2023-8-13T05:11:22Z
2023-08-13T03:12:06Z,42.805,6.029,13.3076,4.60119,2470.73,2023-8-13T05:14:25Z
2023-08-13T03:15:09Z,42.805,6.029,13.3054,4.60137,2470.693,2023-8-13T05:17:28Z
2023-08-13T03:18:12Z,42.805,6.029,13.3067,4.60128,2470.754,2023-8-13T05:20:31Z
2023-08-13T03:21:15Z,42.805,6.029,13.3054,4.60115,2470.73,2023-8-13T05:23:35Z
2023-08-13T03:24:19Z,42.805,6.029,13.3076,4.60105,2470.754,2023-8-13T05:26:38Z
2023-08-13T03:27:22Z,42.805,6.029,13.3052,4.60114,2470.717,2023-8-13T05:29:41Z
2023-08-13T03:30:25Z,42.805,6.029,13.3067,4.60113,2470.754,2023-8-13T05:32:44Z
2023-08-13T03:33:28Z,42.805,6.029,13.3069,4.60120,2470.717,2023-8-13T05:35:47Z
2023-08-13T03:36:31Z,42.805,6.029,13.3073,4.60116,2470.717,2023-8-13T05:38:50Z
2023-08-13T03:39:34Z,42.805,6.029,13.3069,4.60119,2470.717,2023-8-13T05:41:53Z
2023-08-13T03:42:37Z,42.805,6.029,13.3056,4.60110,2470.707,2023-8-13T05:44:56Z
2023-08-13T03:45:40Z,42.805,6.029,13.3061,4.60127,2470.717,2023-8-13T05:47:59Z
2023-08-13T03:48:43Z,42.805,6.029,13.3061,4.60115,2470.73,2023-8-13T05:51:02Z
2023-08-13T03:51:46Z,42.805,6.029,13.3070,4.60128,2470.73,2023-8-13T05:54:05Z
2023-08-13T03:54:49Z,42.805,6.029,13.3048,4.60132,2470.73,2023-8-13T05:57:09Z
2023-08-13T03:57:52Z,42.805,6.029,13.3064,4.60128,2470.717,2023-8-13T06:00:12Z
2023-08-13T04:00:56Z,42.805,6.029,13.3078,4.60127,2470.74,2023-8-13T06:03:15Z
2023-08-13T04:03:59Z,42.805,6.029,13.3071,4.60130,2470.693,2023-8-13T06:06:18Z
2023-08-13T04:07:02Z,42.805,6.029,13.3061,4.60129,2470.707,2023-8-13T06:09:21Z
2023-08-13T04:10:05Z,42.805,6.029,13.3089,4.60125,2470.74,2023-8-13T06:12:24Z
2023-08-13T04:13:08Z,42.805,6.029,13.3068,4.60122,2470.693,2023-8-13T06:15:27Z
2023-08-13T04:16:11Z,42.805,6.029,13.3061,4.60104,2470.754,2023-8-13T06:18:30Z
2023-08-13T04:19:14Z,42.805,6.029,13.3084,4.60118,2470.717,2023-8-13T06:21:33Z
2023-08-13T04:22:17Z,42.805,6.029,13.3063,4.60116,2470.717,2023-8-13T06:24:36Z
2023-08-13T04:25:20Z,42.805,6.029,13.3078,4.60123,2470.693,2023-8-13T06:27:39Z
2023-08-13T04:28:23Z,42.805,6.029,13.3076,4.60125,2470.693,2023-8-13T06:30:42Z
2023-08-13T04:31:26Z,42.805,6.029,13.3064,4.60135,2470.754,2023-8-13T06:33:46Z
2023-08-13T04:34:29Z,42.805,6.029,13.3061,4.60119,2470.717,2023-8-13T06:36:49Z
2023-08-13T04:37:33Z,42.805,6.029,13.3067,4.60114,2470.74,2023-8-13T06:39:52Z
2023-08-13T04:40:36Z,42.805,6.029,13.3058,4.60122,2470.74,2023-8-13T06:42:55Z
2023-08-13T04:43:39Z,42.805,6.029,13.3060,4.60125,2470.74,2023-8-13T06:45:58Z
2023-08-13T04:46:42Z,42.805,6.029,13.3060,4.60127,2470.717,2023-8-13T06:49:01Z
2023-08-13T04:49:45Z,42.805,6.029,13.3067,4.60119,2470.777,2023-8-13T06:52:04Z
2023-08-13T04:52:48Z,42.805,6.029,13.3065,4.60126,2470.777,2023-8-13T06:55:07Z
2023-08-13T04:55:51Z,42.805,6.029,13.3061,4.60129,2470.74,2023-8-13T06:58:10Z
2023-08-13T04:58:54Z,42.805,6.029,13.3068,4.60125,2470.754,2023-8-13T07:01:13Z
2023-08-13T05:01:57Z,42.805,6.029,13.3063,4.60120,2470.754,2023-8-13T07:04:16Z
2023-08-13T05:05:00Z,42.805,6.029,13.3077,4.60137,2470.717,2023-8-13T07:07:19Z
2023-08-13T05:08:03Z,42.805,6.029,13.3076,4.60117,2470.777,2023-8-13T07:10:22Z
2023-08-13T05:11:06Z,42.805,6.029,13.3067,4.60119,2470.777,2023-8-13T07:13:26Z
2023-08-13T05:14:10Z,42.805,6.029,13.3063,4.60121,2470.754,2023-8-13T07:16:29Z
2023-08-13T05:17:13Z,42.805,6.029,13.3065,4.60117,2470.754,2023-8-13T07:19:32Z
2023-08-13T05:20:16Z,42.805,6.029,13.3063,4.60126,2470.777,2023-8-13T07:22:35Z
2023-08-13T05:23:19Z,42.805,6.029,13.3071,4.60125,2470.74,2023-8-13T07:25:38Z
2023-08-13T05:26:22Z,42.805,6.029,13.3078,4.60131,2470.74,2023-8-13T07:28:41Z
2023-08-13T05:29:25Z,42.805,6.029,13.3063,4.60122,2470.73,2023-8-13T07:31:44Z
2023-08-13T05:32:28Z,42.805,6.029,13.3075,4.60127,2470.74,2023-8-13T07:34:47Z
2023-08-13T05:35:31Z,42.805,6.029,13.3079,4.60140,2470.74,2023-8-13T07:37:50Z
2023-08-13T05:38:34Z,42.805,6.029,13.3031,4.60127,2470.74,2023-8-13T07:40:53Z
2023-08-13T05:41:37Z,42.805,6.029,13.3041,4.60132,2470.74,2023-8-13T07:43:56Z
2023-08-13T05:44:40Z,42.805,6.029,13.3025,4.60113,2470.717,2023-8-13T07:46:59Z
2023-08-13T05:47:43Z,42.805,6.029,13.3029,4.60106,2470.74,2023-8-13T07:50:03Z
2023-08-13T05:50:46Z,42.805,6.029,13.3028,4.60107,2470.777,2023-8-13T07:53:06Z
2023-08-13T05:53:50Z,42.805,6.029,13.3027,4.60102,2470.74,2023-8-13T07:56:09Z
2023-08-13T05:56:53Z,42.805,6.029,13.3029,4.60105,2470.74,2023-8-13T07:59:12Z
2023-08-13T05:59:56Z,42.805,6.029,13.3026,4.60104,2470.717,2023-8-13T08:02:15Z
2023-08-13T06:02:59Z,42.805,6.029,13.3024,4.60104,2470.74,2023-8-13T08:05:18Z
2023-08-13T06:06:02Z,42.805,6.029,13.3030,4.60103,2470.74,2023-8-13T08:08:21Z
2023-08-13T06:09:05Z,42.805,6.029,13.3026,4.60102,2470.74,2023-8-13T08:11:24Z
2023-08-13T06:12:08Z,42.805,6.029,13.3024,4.60099,2470.754,2023-8-13T08:14:27Z
2023-08-13T06:15:11Z,42.805,6.029,13.3025,4.60099,2470.74,2023-8-13T08:17:30Z
2023-08-13T06:18:14Z,42.805,6.029,13.3026,4.60101,2470.73,2023-8-13T08:20:33Z
2023-08-13T06:21:17Z,42.805,6.029,13.3029,4.60099,2470.763,2023-8-13T08:23:36Z
2023-08-13T06:24:20Z,42.805,6.029,13.3023,4.60098,2470.73,2023-8-13T08:26:40Z
2023-08-13T06:27:24Z,42.805,6.029,13.3026,4.60095,2470.74,2023-8-13T08:29:43Z
2023-08-13T06:30:28Z,42.805,6.029,13.3023,4.60093,2470.74,2023-8-13T08:32:47Z
2023-08-13T06:33:31Z,42.805,6.029,13.3024,4.60093,2470.754,2023-8-13T08:35:50Z
2023-08-13T06:36:34Z,42.805,6.029,13.3027,4.60094,2470.74,2023-8-13T08:38:53Z
2023-08-13T06:39:37Z,42.805,6.029,13.3025,4.60093,2470.763,2023-8-13T08:41:56Z
2023-08-13T06:42:40Z,42.805,6.029,13.3024,4.60095,2470.73,2023-8-13T08:44:59Z
2023-08-13T06:45:43Z,42.805,6.029,13.3024,4.60092,2470.754,2023-8-13T08:48:02Z
2023-08-13T06:48:46Z,42.805,6.029,13.3028,4.60092,2470.717,2023-8-13T08:51:05Z
2023-08-13T06:51:49Z,42.805,6.029,13.3021,4.60094,2470.717,2023-8-13T08:54:09Z
2023-08-13T06:54:52Z,42.805,6.029,13.3026,4.60095,2470.717,2023-8-13T08:57:12Z
2023-08-13T06:57:56Z,42.805,6.029,13.3026,4.60097,2470.717,2023-8-13T09:00:15Z
2023-08-13T07:00:59Z,42.805,6.029,13.3026,4.60096,2470.74,2023-8-13T09:03:18Z
2023-08-13T07:04:02Z,42.805,6.029,13.3026,4.60100,2470.717,2023-8-13T09:06:21Z
2023-08-13T07:07:05Z,42.805,6.029,13.3024,4.60105,2470.717,2023-8-13T09:09:24Z
2023-08-13T07:10:08Z,42.805,6.029,13.3027,4.60102,2470.717,2023-8-13T09:12:27Z
2023-08-13T07:13:11Z,42.805,6.029,13.3026,4.60090,2470.73,2023-8-13T09:15:30Z
2023-08-13T07:16:14Z,42.805,6.029,13.3022,4.60090,2470.693,2023-8-13T09:18:33Z
2023-08-13T07:19:17Z,42.805,6.029,13.3026,4.60096,2470.777,2023-8-13T09:21:36Z
2023-08-13T07:22:20Z,42.805,6.029,13.3027,4.60093,2470.74,2023-8-13T09:24:39Z
2023-08-13T07:25:23Z,42.805,6.029,13.3026,4.60092,2470.717,2023-8-13T09:27:42Z
2023-08-13T07:28:26Z,42.805,6.029,13.3025,4.60104,2470.707,2023-8-13T09:30:46Z
2023-08-13T07:31:29Z,42.805,6.029,13.3028,4.60093,2470.754,2023-8-13T09:33:49Z
2023-08-13T07:34:33Z,42.805,6.029,13.3026,4.60114,2470.717,2023-8-13T09:36:52Z
2023-08-13T07:37:36Z,42.805,6.029,13.3025,4.60102,2470.717,2023-8-13T09:39:55Z
2023-08-13T07:40:39Z,42.805,6.029,13.3030,4.60092,2470.707,2023-8-13T09:42:58Z
2023-08-13T07:43:42Z,42.805,6.029,13.3026,4.60103,2470.717,2023-8-13T09:46:01Z
2023-08-13T07:46:45Z,42.805,6.029,13.3024,4.60093,2470.707,2023-8-13T09:49:04Z
2023-08-13T07:49:48Z,42.805,6.029,13.3024,4.60089,2470.67,2023-8-13T09:52:07Z
2023-08-13T07:52:51Z,42.805,6.029,13.3026,4.60092,2470.717,2023-8-13T09:55:10Z
2023-08-13T07:55:54Z,42.805,6.029,13.3026,4.60093,2470.693,2023-8-13T09:58:13Z
2023-08-13T07:58:57Z,42.805,6.029,13.3029,4.60096,2470.717,2023-8-13T10:01:16Z
2023-08-13T08:02:00Z,42.805,6.029,13.3027,4.60090,2470.717,2023-8-13T10:04:19Z
2023-08-13T08:05:03Z,42.805,6.029,13.3032,4.60096,2470.717,2023-8-13T10:07:22Z
2023-08-13T08:08:06Z,42.805,6.029,13.3027,4.60093,2470.693,2023-8-13T10:10:26Z
2023-08-13T08:11:10Z,42.805,6.029,13.3026,4.60095,2470.693,2023-8-13T10:13:29Z
2023-08-13T08:14:13Z,42.805,6.029,13.3030,4.60092,2470.693,2023-8-13T10:16:32Z
2023-08-13T08:17:16Z,42.805,6.029,13.3030,4.60099,2470.693,2023-8-13T10:19:35Z
2023-08-13T08:20:19Z,42.805,6.029,13.3026,4.60097,2470.684,2023-8-13T10:22:38Z
2023-08-13T08:23:22Z,42.805,6.029,13.3028,4.60088,2470.693,2023-8-13T10:25:41Z
2023-08-13T08:26:25Z,42.805,6.029,13.3029,4.60093,2470.67,2023-8-13T10:28:44Z
2023-08-13T08:29:28Z,42.805,6.029,13.3026,4.60088,2470.73,2023-8-13T10:31:47Z
2023-08-13T08:32:31Z,42.805,6.029,13.3028,4.60087,2470.693,2023-8-13T10:34:50Z
2023-08-13T08:35:34Z,42.805,6.029,13.3026,4.60087,2470.73,2023-8-13T10:37:53Z
2023-08-13T08:38:37Z,42.805,6.029,13.3026,4.60088,2470.707,2023-8-13T10:40:56Z
2023-08-13T08:41:40Z,42.805,6.029,13.3029,4.60092,2470.707,2023-8-13T10:43:59Z
2023-08-13T08:44:43Z,42.805,6.029,13.3024,4.60087,2470.73,2023-8-13T10:47:02Z
2023-08-13T08:47:46Z,42.805,6.029,13.3030,4.60087,2470.707,2023-8-13T10:50:05Z
2023-08-13T08:50:49Z,42.805,6.029,13.3025,4.60088,2470.67,2023-8-13T10:53:08Z
2023-08-13T08:53:52Z,42.805,6.029,13.3027,4.60089,2470.693,2023-8-13T10:56:11Z
2023-08-13T08:56:55Z,42.805,6.029,13.3028,4.60097,2470.67,2023-8-13T10:59:15Z
2023-08-13T08:59:58Z,42.805,6.029,13.3029,4.60092,2470.67,2023-8-13T11:02:18Z
2023-08-13T09:03:02Z,42.805,6.029,13.3026,4.60088,2470.684,2023-8-13T11:05:21Z
2023-08-13T09:06:05Z,42.805,6.029,13.3030,4.60089,2470.661,2023-8-13T11:08:24Z
2023-08-13T09:09:08Z,42.805,6.029,13.3027,4.60088,2470.646,2023-8-13T11:11:27Z
2023-08-13T09:12:11Z,42.805,6.029,13.3034,4.60087,2470.646,2023-8-13T11:14:30Z
2023-08-13T09:15:14Z,42.805,6.029,13.3031,4.60087,2470.67,2023-8-13T11:17:33Z
2023-08-13T09:18:17Z,42.805,6.029,13.3031,4.60087,2470.693,2023-8-13T11:20:36Z
2023-08-13T09:21:20Z,42.805,6.029,13.3027,4.60089,2470.707,2023-8-13T11:23:39Z
2023-08-13T09:24:23Z,42.805,6.029,13.3027,4.60092,2470.67,2023-8-13T11:26:42Z
2023-08-13T09:27:26Z,42.805,6.029,13.3030,4.60089,2470.693,2023-8-13T11:29:45Z
2023-08-13T09:30:29Z,42.805,6.029,13.3031,4.60090,2470.646,2023-8-13T11:32:49Z
2023-08-13T09:33:32Z,42.805,6.029,13.3032,4.60091,2470.67,2023-8-13T11:35:52Z
2023-08-13T09:36:36Z,42.805,6.029,13.3030,4.60090,2470.67,2023-8-13T11:38:55Z
2023-08-13T09:39:39Z,42.805,6.029,13.3031,4.60094,2470.684,2023-8-13T11:41:58Z
2023-08-13T09:42:42Z,42.805,6.029,13.3026,4.60088,2470.684,2023-8-13T11:45:01Z
2023-08-13T09:45:45Z,42.805,6.029,13.3027,4.60089,2470.646,2023-8-13T11:48:04Z
2023-08-13T09:48:48Z,42.805,6.029,13.3033,4.60087,2470.646,2023-8-13T11:51:07Z
2023-08-13T09:51:51Z,42.805,6.029,13.3026,4.60089,2470.67,2023-8-13T11:54:10Z
2023-08-13T09:54:54Z,42.805,6.029,13.3027,4.60088,2470.646,2023-8-13T11:57:13Z
2023-08-13T09:57:57Z,42.805,6.029,13.3031,4.60087,2470.693,2023-8-13T12:00:16Z
2023-08-13T10:01:00Z,42.805,6.029,13.3024,4.60093,2470.67,2023-8-13T12:03:19Z
2023-08-13T10:04:03Z,42.805,6.029,13.3027,4.60094,2470.684,2023-8-13T12:06:22Z
2023-08-13T10:07:06Z,42.805,6.029,13.3028,4.60085,2470.661,2023-8-13T12:09:26Z
2023-08-13T10:10:10Z,42.805,6.029,13.3024,4.60087,2470.646,2023-8-13T12:12:29Z
2023-08-13T10:13:13Z,42.805,6.029,13.3029,4.60087,2470.684,2023-8-13T12:15:32Z
2023-08-13T10:16:16Z,42.805,6.029,13.3026,4.60087,2470.693,2023-8-13T12:18:35Z
2023-08-13T10:19:19Z,42.805,6.029,13.3028,4.60087,2470.646,2023-8-13T12:21:38Z
2023-08-13T10:22:22Z,42.805,6.029,13.3029,4.60087,2470.67,2023-8-13T12:24:41Z
2023-08-13T10:25:25Z,42.805,6.029,13.3029,4.60087,2470.624,2023-8-13T12:27:44Z
2023-08-13T10:28:28Z,42.805,6.029,13.3026,4.60087,2470.646,2023-8-13T12:30:47Z
2023-08-13T10:31:29Z,42.805,6.029,13.3029,4.60086,2470.67,2023-8-13T12:33:48Z
2023-08-13T10:34:32Z,42.805,6.029,13.3024,4.60087,2470.67,2023-8-13T12:36:52Z
2023-08-13T10:37:36Z,42.805,6.029,13.3029,4.60090,2470.661,2023-8-13T12:39:55Z
2023-08-13T10:40:39Z,42.805,6.029,13.3026,4.60088,2470.614,2023-8-13T12:42:58Z
2023-08-13T10:43:42Z,42.805,6.029,13.3026,4.60087,2470.684,2023-8-13T12:46:01Z
2023-08-13T10:46:45Z,42.805,6.029,13.3029,4.60087,2470.646,2023-8-13T12:49:04Z
2023-08-13T10:49:48Z,42.805,6.029,13.3028,4.60091,2470.646,2023-8-13T12:52:07Z
2023-08-13T10:52:51Z,42.805,6.029,13.3024,4.60087,2470.637,2023-8-13T12:55:10Z
2023-08-13T10:55:54Z,42.805,6.029,13.3024,4.60087,2470.624,2023-8-13T12:58:13Z
2023-08-13T10:58:57Z,42.805,6.029,13.3026,4.60087,2470.67,2023-8-13T13:01:16Z
2023-08-13T11:02:00Z,42.805,6.029,13.3031,4.60089,2470.637,2023-8-13T13:04:19Z
2023-08-13T11:05:03Z,42.805,6.029,13.3027,4.60092,2470.646,2023-8-13T13:07:22Z
2023-08-13T11:08:06Z,42.805,6.029,13.3021,4.60091,2470.661,2023-8-13T13:10:26Z
2023-08-13T11:11:09Z,42.805,6.029,13.3027,4.60091,2470.646,2023-8-13T13:13:29Z
2023-08-13T11:14:13Z,42.805,6.029,13.3027,4.60087,2470.661,2023-8-13T13:16:32Z
2023-08-13T11:17:16Z,42.805,6.029,13.3026,4.60089,2470.624,2023-8-13T13:19:35Z
2023-08-13T11:20:19Z,42.805,6.029,13.3028,4.60087,2470.6,2023-8-13T13:22:38Z
2023-08-13T11:23:22Z,42.805,6.029,13.3026,4.60088,2470.624,2023-8-13T13:25:41Z
2023-08-13T11:26:25Z,42.805,6.029,13.3028,4.60089,2470.624,2023-8-13T13:28:44Z
2023-08-13T11:29:28Z,42.805,6.029,13.3027,4.60089,2470.624,2023-8-13T13:31:47Z
2023-08-13T11:32:31Z,42.805,6.029,13.3029,4.60098,2470.646,2023-8-13T13:34:50Z
2023-08-13T11:35:34Z,42.805,6.029,13.3030,4.60089,2470.637,2023-8-13T13:37:53Z
2023-08-13T11:38:37Z,42.805,6.029,13.3029,4.60087,2470.614,2023-8-13T13:40:56Z
2023-08-13T11:41:40Z,42.805,6.029,13.3031,4.60088,2470.646,2023-8-13T13:44:00Z
2023-08-13T11:44:43Z,42.805,6.029,13.3028,4.60086,2470.624,2023-8-13T13:47:03Z
2023-08-13T11:47:47Z,42.805,6.029,13.3028,4.60087,2470.624,2023-8-13T13:50:06Z
2023-08-13T11:50:50Z,42.805,6.029,13.3037,4.60101,2470.646,2023-8-13T13:53:09Z
2023-08-13T11:53:53Z,42.805,6.029,13.3025,4.60087,2470.646,2023-8-13T13:56:12Z
2023-08-13T11:56:56Z,42.805,6.029,13.3036,4.60092,2470.6,2023-8-13T13:59:15Z
2023-08-13T11:59:59Z,42.805,6.029,13.3041,4.60094,2470.624,2023-8-13T14:02:18Z
2023-08-13T12:03:02Z,42.805,6.029,13.3029,4.60090,2470.624,2023-8-13T14:05:21Z
2023-08-13T12:06:05Z,42.805,6.029,13.3034,4.60088,2470.624,2023-8-13T14:08:24Z
2023-08-13T12:09:08Z,42.805,6.029,13.3028,4.60091,2470.624,2023-8-13T14:11:27Z
2023-08-13T12:12:11Z,42.805,6.029,13.3021,4.60089,2470.624,2023-8-13T14:14:30Z
2023-08-13T12:15:14Z,42.805,6.029,13.3029,4.60091,2470.6,2023-8-13T14:17:33Z
2023-08-13T12:18:17Z,42.805,6.029,13.3021,4.60089,2470.624,2023-8-13T14:20:37Z
2023-08-13T12:21:21Z,42.805,6.029,13.3022,4.60088,2470.624,2023-8-13T14:23:40Z
2023-08-13T12:24:24Z,42.805,6.029,13.3029,4.60091,2470.661,2023-8-13T14:26:43Z
2023-08-13T12:27:27Z,42.805,6.029,13.3028,4.60087,2470.6,2023-8-13T14:29:46Z
2023-08-13T12:30:30Z,42.805,6.029,13.3026,4.60085,2470.624,2023-8-13T14:32:49Z
2023-08-13T12:33:33Z,42.805,6.029,13.3030,4.60087,2470.624,2023-8-13T14:35:52Z
2023-08-13T12:36:36Z,42.805,6.029,13.3025,4.60087,2470.646,2023-8-13T14:38:55Z
2023-08-13T12:39:39Z,42.805,6.029,13.3030,4.60092,2470.67,2023-8-13T14:41:58Z
2023-08-13T12:42:42Z,42.805,6.029,13.3026,4.60092,2470.67,2023-8-13T14:45:01Z
2023-08-13T12:45:45Z,42.805,6.029,13.3031,4.60087,2470.646,2023-8-13T14:48:04Z
2023-08-13T12:48:48Z,42.805,6.029,13.3030,4.60092,2470.624,2023-8-13T14:51:07Z
2023-08-13T12:51:51Z,42.805,6.029,13.3037,4.60088,2470.661,2023-8-13T14:54:11Z
2023-08-13T12:54:54Z,42.805,6.029,13.3047,4.60093,2470.624,2023-8-13T14:57:14Z
2023-08-13T12:57:58Z,42.805,6.029,13.3035,4.60093,2470.646,2023-8-13T15:00:17Z
2023-08-13T13:01:01Z,42.805,6.029,13.3029,4.60087,2470.646,2023-8-13T15:03:20Z
2023-08-13T13:04:04Z,42.805,6.029,13.3032,4.60087,2470.67,2023-8-13T15:06:23Z
2023-08-13T13:07:07Z,42.805,6.029,13.3041,4.60094,2470.646,2023-8-13T15:09:26Z
2023-08-13T13:10:10Z,42.805,6.029,13.3059,4.60104,2470.684,2023-8-13T15:12:29Z
2023-08-13T13:13:13Z,42.805,6.029,13.3056,4.60098,2470.633,2023-8-13T15:15:32Z
2023-08-13T13:16:16Z,42.805,6.029,13.3045,4.60117,2470.661,2023-8-13T15:18:35Z
2023-08-13T13:19:19Z,42.805,6.029,13.3056,4.60112,2470.661,2023-8-13T15:21:38Z
2023-08-13T13:22:22Z,42.805,6.029,13.3061,4.60099,2470.661,2023-8-13T15:24:41Z
2023-08-13T13:25:25Z,42.805,6.029,13.3032,4.60107,2470.684,2023-8-13T15:27:45Z
2023-08-13T13:28:28Z,42.805,6.029,13.3038,4.60110,2470.684,2023-8-13T15:30:48Z
2023-08-13T13:31:32Z,42.805,6.029,13.3036,4.60107,2470.67,2023-8-13T15:33:51Z
2023-08-13T13:34:35Z,42.805,6.029,13.3037,4.60092,2470.646,2023-8-13T15:36:54Z
2023-08-13T13:37:38Z,42.805,6.029,13.3049,4.60108,2470.67,2023-8-13T15:39:57Z
2023-08-13T13:40:41Z,42.805,6.029,13.3042,4.60099,2470.693,2023-8-13T15:43:00Z
2023-08-13T13:43:44Z,42.805,6.029,13.3050,4.60104,2470.646,2023-8-13T15:46:03Z
2023-08-13T13:46:47Z,42.805,6.029,13.3044,4.60134,2470.693,2023-8-13T15:49:06Z
2023-08-13T13:49:50Z,42.805,6.029,13.3046,4.60114,2470.646,2023-8-13T15:52:09Z
2023-08-13T13:52:53Z,42.805,6.029,13.3041,4.60131,2470.67,2023-8-13T15:55:12Z
2023-08-13T13:55:56Z,42.805,6.029,13.3050,4.60114,2470.67,2023-8-13T15:58:15Z
2023-08-13T13:58:59Z,42.805,6.029,13.3045,4.60128,2470.717,2023-8-13T16:01:18Z
2023-08-13T14:02:02Z,42.805,6.029,13.3036,4.60127,2470.684,2023-8-13T16:04:22Z
2023-08-13T14:05:06Z,42.805,6.029,13.3041,4.60131,2470.684,2023-8-13T16:07:25Z
2023-08-13T14:08:09Z,42.805,6.029,13.3053,4.60129,2470.707,2023-8-13T16:10:28Z
2023-08-13T14:11:12Z,42.805,6.029,13.3047,4.60120,2470.684,2023-8-13T16:13:31Z
2023-08-13T14:14:15Z,42.805,6.029,13.3045,4.60107,2470.73,2023-8-13T16:16:34Z
2023-08-13T14:17:18Z,42.805,6.029,13.3042,4.60130,2470.67,2023-8-13T16:19:37Z
2023-08-13T14:20:21Z,42.805,6.029,13.3039,4.60129,2470.67,2023-8-13T16:22:40Z
2023-08-13T14:23:24Z,42.805,6.029,13.3032,4.60141,2470.693,2023-8-13T16:25:43Z
2023-08-13T14:26:27Z,42.805,6.029,13.3036,4.60155,2470.693,2023-8-13T16:28:46Z
2023-08-13T14:29:30Z,42.805,6.029,13.3034,4.60127,2470.693,2023-8-13T16:31:49Z
2023-08-13T14:32:32Z,42.805,6.029,13.3041,4.60144,2470.73,2023-8-13T16:34:51Z
2023-08-13T14:35:35Z,42.805,6.029,13.3046,4.60139,2470.693,2023-8-13T16:37:54Z
2023-08-13T14:38:38Z,42.805,6.029,13.3040,4.60140,2470.67,2023-8-13T16:40:57Z
2023-08-13T14:41:41Z,42.805,6.029,13.3042,4.60145,2470.693,2023-8-13T16:44:00Z
2023-08-13T14:44:44Z,42.805,6.029,13.3050,4.60140,2470.754,2023-8-13T16:47:04Z
2023-08-13T14:47:47Z,42.805,6.029,13.3040,4.60150,2470.693,2023-8-13T16:50:07Z
2023-08-13T14:50:51Z,42.805,6.029,13.3036,4.60144,2470.73,2023-8-13T16:53:10Z
2023-08-13T14:53:54Z,42.805,6.029,13.3048,4.60139,2470.717,2023-8-13T16:56:13Z
2023-08-13T14:56:57Z,42.805,6.029,13.3059,4.60155,2470.73,2023-8-13T16:59:16Z
2023-08-13T15:00:00Z,42.805,6.029,13.3036,4.60160,2470.73,2023-8-13T17:02:19Z
2023-08-13T15:03:03Z,42.805,6.029,13.3046,4.60152,2470.717,2023-8-13T17:05:22Z
2023-08-13T15:06:06Z,42.805,6.029,13.3040,4.60169,2470.74,2023-8-13T17:08:25Z
2023-08-13T15:09:09Z,42.805,6.029,13.3041,4.60133,2470.717,2023-8-13T17:11:28Z
2023-08-13T15:12:12Z,42.805,6.029,13.3039,4.60139,2470.74,2023-8-13T17:14:31Z
2023-08-13T15:15:15Z,42.805,6.029,13.3046,4.60160,2470.717,2023-8-13T17:17:34Z